TimeMST,TemperatureF,Dew PointF,Humidity,Sea Level PressureIn,VisibilityMPH,Wind Direction,Wind SpeedMPH,Gust SpeedMPH,PrecipitationIn,Events,Conditions,WindDirDegrees,DateUTC
12:53 AM,73.9,46.0,37,29.80,10.0,Calm,Calm,-,N/A,,Clear,0,2012-10-11 07:53:00
1:53 AM,73.0,46.9,39,29.80,10.0,Calm,Calm,-,N/A,,Clear,0,2012-10-11 08:53:00
2:53 AM,70.0,48.0,46,29.81,10.0,Calm,Calm,-,N/A,,Clear,0,2012-10-11 09:53:00
3:53 AM,70.0,45.0,41,29.80,10.0,Calm,Calm,-,N/A,,Clear,0,2012-10-11 10:53:00
4:53 AM,73.0,46.0,38,29.81,10.0,Calm,Calm,-,N/A,,Clear,0,2012-10-11 11:53:00
5:53 AM,72.0,48.0,43,29.80,10.0,ENE,3.5,-,N/A,,Clear,70,2012-10-11 12:53:00
6:53 AM,71.1,48.0,44,29.82,10.0,Calm,Calm,-,0.00,,Mostly Cloudy,0,2012-10-11 13:53:00
7:53 AM,70.0,57.9,65,29.84,8.0,ENE,3.5,-,0.02,Rain,Light Rain,60,2012-10-11 14:53:00
8:53 AM,75.0,57.0,53,29.84,10.0,Calm,Calm,-,0.00,,Overcast,0,2012-10-11 15:53:00
9:53 AM,79.0,55.9,45,29.84,10.0,Calm,Calm,-,N/A,,Mostly Cloudy,0,2012-10-11 16:53:00
10:53 AM,81.0,52.0,36,29.83,10.0,SSE,5.8,-,N/A,,Partly Cloudy,160,2012-10-11 17:53:00
11:53 AM,82.9,52.0,34,29.81,10.0,SSE,8.1,-,N/A,,Mostly Cloudy,160,2012-10-11 18:53:00
12:53 PM,84.9,50.0,30,29.78,10.0,SSE,11.5,18.4,N/A,,Partly Cloudy,160,2012-10-11 19:53:00
1:53 PM,84.9,51.1,31,29.75,10.0,South,9.2,18.4,N/A,,Mostly Cloudy,180,2012-10-11 20:53:00
4:53 PM,84.0,46.9,27,29.72,10.0,South,10.4,17.3,N/A,,Clear,190,2012-10-11 23:53:00
5:53 PM,82.9,46.0,27,29.74,10.0,SW,15.0,19.6,N/A,,Mostly Cloudy,220,2012-10-12 00:53:00
6:53 PM,82.0,39.0,22,29.75,10.0,South,10.4,-,N/A,,Mostly Cloudy,190,2012-10-12 01:53:00
7:16 PM,80.6,39.2,23,29.83,10.0,West,12.7,19.6,N/A,Thunderstorm,Mostly Cloudy,260,2012-10-12 02:16:00
7:38 PM,78.8,42.8,28,29.84,10.0,WSW,11.5,-,N/A,,Partly Cloudy,250,2012-10-12 02:38:00
7:53 PM,78.1,44.1,30,29.77,10.0,West,9.2,-,N/A,Thunderstorm,Partly Cloudy,260,2012-10-12 02:53:00
9:17 PM,71.6,53.6,53,29.88,10.0,East,9.2,-,0.00,Rain-Thunderstorm,Light Rain,90,2012-10-12 04:17:00
9:46 PM,71.6,53.6,53,29.89,10.0,Calm,Calm,-,0.00,Rain,Light Rain,0,2012-10-12 04:46:00
9:53 PM,72.0,55.0,55,29.84,10.0,ENE,3.5,-,0.00,Rain,Light Rain,60,2012-10-12 04:53:00
10:22 PM,73.4,55.4,53,29.90,10.0,Calm,Calm,-,0.00,Thunderstorm,Thunderstorm,0,2012-10-12 05:22:00
10:50 PM,71.6,53.6,53,29.89,10.0,Calm,Calm,-,0.00,Rain-Thunderstorm,Light Rain,0,2012-10-12 05:50:00
10:51 PM,72.0,53.1,51,29.83,10.0,Calm,Calm,-,0.00,Rain-Thunderstorm,Light Rain,0,2012-10-12 05:51:00
11:53 PM,66.0,54.0,65,29.85,10.0,East,4.6,-,0.04,Thunderstorm,Thunderstorm,100,2012-10-12 06:53:00